This is the latest recevied weather packets stored in our database for station/object SV9TNF-52. If no packets are shown the sender has not sent any weather packets the latest 10 day(s).
| Time | Temp. | Humidity | Pressure | Rain* | Wind** | Luminosity | Snow |
|---|---|---|---|---|---|---|---|
| 1788372531 | 23.89° C | 62% | 1019.6 hPa | 0 mm | 7.6 m/s, 249° | - | - |
| 1788372232 | 24.44° C | 62% | 1019.6 hPa | 0 mm | 5.81 m/s, 244° | - | - |
| 1788371931 | 24.44° C | 61% | 1019.6 hPa | 0 mm | 5.81 m/s, 219° | - | - |
| 1788371631 | 24.44° C | 62% | 1019.6 hPa | 0 mm | 6.26 m/s, 188° | - | - |
| 1788371331 | 24.44° C | 62% | 1019.6 hPa | 0 mm | 5.36 m/s, 207° | - | - |
| 1788371031 | 24.44° C | 62% | 1019.3 hPa | 0 mm | 6.26 m/s, 244° | - | - |
| 1788370731 | 25° C | 62% | 1019.3 hPa | 0 mm | 2.68 m/s, 190° | - | - |
| 1788370431 | 25.56° C | 62% | 1019.3 hPa | 0 mm | 4.02 m/s, 212° | - | - |
| 1788370131 | 26.11° C | 62% | 1019.3 hPa | 0 mm | 1.79 m/s, 243° | - | - |
| 1788369831 | 26.67° C | 61% | 1019 hPa | 0 mm | 2.68 m/s, 251° | - | - |
| 1788369531 | 26.67° C | 61% | 1019 hPa | 0 mm | 3.13 m/s, 256° | - | - |
| 1788369231 | 26.67° C | 61% | 1019 hPa | 0 mm | 1.34 m/s, 258° | - | - |
| 1788368931 | 26.67° C | 61% | 1019.3 hPa | 0 mm | 0 m/s | - | - |
| 1788368630 | 26.67° C | 61% | 1019.3 hPa | 0 mm | 2.24 m/s, 251° | - | - |
| 1788368330 | 27.22° C | 61% | 1019.3 hPa | 0 mm | 2.68 m/s, 263° | - | - |
| 1788368030 | 27.22° C | 60% | 1019.3 hPa | 0 mm | 3.13 m/s, 271° | - | - |
| 1788367731 | 27.22° C | 60% | 1019.3 hPa | 0 mm | 1.34 m/s, 270° | - | - |
| 1788367430 | 27.78° C | 59% | 1019.3 hPa | 0 mm | 0 m/s | - | - |
| 1788367130 | 27.78° C | 58% | 1019.3 hPa | 0 mm | 3.13 m/s, 265° | - | - |
| 1788366830 | 28.33° C | 57% | 1019.3 hPa | 0 mm | 1.79 m/s, 247° | - | - |
| 1788366530 | 28.33° C | 55% | 1019.3 hPa | 0 mm | 4.47 m/s, 273° | - | - |
| 1788366230 | 28.89° C | 54% | 1019.3 hPa | 0 mm | 1.79 m/s, 267° | - | - |
| 1788365929 | 29.44° C | 54% | 1019.3 hPa | 0 mm | 3.13 m/s, 263° | - | - |
| 1788365629 | 29.44° C | 52% | 1019.3 hPa | 0 mm | 1.79 m/s, 359° | - | - |
| 1788365330 | 29.44° C | 51% | 1019.3 hPa | 0 mm | 4.47 m/s, 260° | - | - |
* Rain latest hour (hover to see other rain measurements)
** Current wind speed in m/s (hover to see current wind gust speed)